SPACEBEE-96 (48934 NORAD) Tracking and Keplerian Element Data

This shows tracking and keplerian element data for the satellite.

Feedback or suggestion? Click here.




ElementValue
Catalog48934
NameSPACEBEE-96
Epoch Orbit1396
Epoch Day269.08090635
Epoch Year2021
RAAN36.7461
Inclination97.5197
Eccentricity0.0016318
Argument of Perigee298.1525
Mean Anonmoly61.8057
Mean Motion15.14638998
Decay Rate7.371E-05
L11 48934U 21059BH 21269.08090635 .00007371 00000-0 40105-3 0 9997
L22 48934 97.5197 36.7461 0016318 298.1525 61.8057 15.14638998 13966

Live tracking and technical data element details for SPACEBEE-96 (NORAD 48934). SPACEBEE-96 can be tracked NOW for your location showing map with azimuth and elevation plus other details from your city location.

Track the satellite on the map from your city or location and see movement details for azimuth, elevation, latitude, longitude, range, height, and movement on the map or in text.







IsCatalogInMostPopularTable: catalog: 48934, numindb: 14
Update: records affected: 1



GetName: 48934 SPACEBEE-96

Hit Count: updated at: Sun, 26 Sep 2021 15:50:01 GMT